OKEAN-0
1 25860U 99039A 11026.93935329 .00000056 00000-0 16047-4 0 02158
2 25860 097.8646 357.4340 0001905 077.0081 283.1341 14.73704098619851
NOAA-16
1 26536U 00055A 11027.40828136 .00000297 00000-0 18540-3 0 1682
2 26536 099.1553 054.9940 0011202 070.3013 289.9391 14.12596077533483
NOAA-17
1 27453U 02032A 11026.75851516 -.00000108 00000-0 -28917-4 0 01631
2 27453 098.4000 072.8322 0011474 199.1501 160.9255 14.24229975446525
NOAA-18
1 28654U 05018A 11026.82009954 .00000032 00000-0 42527-4 0 06497
2 28654 098.9793 337.7527 0014708 140.2706 219.9504 14.11430808292986
NOAA-19
1 33591U 09005A 11026.78612991 -.00000115 00000-0 -39554-4 0 08435
2 33591 098.8137 329.4204 0014664 019.4269 340.7440 14.11123326101441
HUBBLE
1 20580U 90037B 11026.64937645 .00000402 00000-0 17859-4 0 7064
2 20580 028.4692 220.8594 0003338 058.8207 301.2683 15.01146526938368
ISS
1 25544U 98067A 11027.97546650 .00012032 00000-0 93794-4 0 7209
2 25544 051.6442 159.8098 0003759 236.9418 226.5219 15.72182954698836
CO-58
1 28895U 05043F 11027.43866102 .00000233 00000-0 57791-4 0 7860
2 28895 097.9864 269.1023 0017069 304.5368 055.4254 14.59999588279709
FALCON
1 30776U 07006E 11027.67641747 .00000627 00000-0 47394-4 0 97
2 30776 035.4323 120.9610 0001794 330.5494 029.5121 15.04081060213879
MAST
1 31126U 07012K 11027.62141232 .00000098 00000-0 32740-4 0 702
2 31126 097.9108 062.6908 0093593 248.1113 111.0112 14.53667533200663
CAPE1
1 31130U 07012P 11026.92393796 -.00000080 00000-0 -75202-5 0 00910
2 31130 097.9126 059.0209 0101564 259.9120 099.0593 14.52282285200134
COMPASS
1 32787U 08021E 11026.92240295 -.00000035 00000-0 22537-5 0 8937
2 32787 097.8661 093.2824 0014651 278.3236 081.6311 14.82118071148637
AAUSAT2
1 32788U 08021F 11026.70015350 .00000450 00000-0 62871-4 0 08839
2 32788 097.8650 093.2445 0014199 278.5027 081.4525 14.82282286148615
DO-64
1 32789U 08021G 11026.94761771 .00000757 00000-0 10060-3 0 09014
2 32789 097.8750 094.2534 0014375 275.7937 084.1639 14.82561842148650
CO-66
1 32791U 08021J 11027.18232427 -.00000140 00000-0 -11002-4 0 8830
2 32791 097.8669 093.5166 0015013 275.8098 084.1373 14.81863120148629
RS-30
1 32953U 08025A 11027.61369316 .00000010 00000-0 00000 0 0 4213
2 32953 082.4990 250.1197 0018972 335.8561 024.1629 12.43010572121620
TACSAT-3
1 35001U 09028A 11026.97344326 .00004569 00000-0 10019-3 0 04966
2 35001 040.4553 307.2579 0023758 242.4989 117.3412 15.44556764095211
PHARMSAT
1 35002U 09028B 11026.93571651 .00004304 00000-0 93802-4 0 04651
2 35002 040.4706 304.9763 0025691 245.8997 113.9145 15.44787035095239
HAWKSAT1
1 35003U 09028C 11026.76767609 .00013202 00000-0 21977-3 0 04990
2 35003 040.4611 291.3146 0025226 269.2924 090.5020 15.51355517095374
CP6
1 35004U 09028D 11026.75425618 .00016068 00000-0 24621-3 0 05028
2 35004 040.4600 287.5987 0024867 275.1507 084.6513 15.53548131095409
AEROCUB3
1 35005U 09028E 11006.09222617 .14049365 73043-5 82692-3 0 6103
2 35005 040.4461 021.7975 0025578 084.1677 280.7191 16.39196088 92544
METEOR-M
1 35865U 09049A 11027.69001505 .00000176 00000-0 10000-3 0 489
2 35865 098.7269 084.5111 0003225 076.3436 283.8059 14.21834304 70621
RS-38
1 35869U 09049E 11027.70684042 .00000177 00000-0 10000-3 0 614
2 35869 098.7257 084.5699 0005443 077.1911 282.9834 14.21998872 70637
